Weather Roundup
Issued by NWS Chicago, IL

Home | Current Version | Previous Version | Text Only | Print | Product List | Glossary On
Versions: 1 2 3 4 5 6 7 8 9 10 11 12 13 14 15 16 17 18 19 20 21 22 23 24 25 26 27 28 29 30 31 32 33 34 35 36 37 38 39 40 41 42 43 44 45 46 47 48 49 50
000
NZUS59 KLOT 120408
HRRLOT

CHICAGO AREA WEATHER ROUNDUP
NATIONAL WEATHER SERVICE CHICAGO/ROMEOVILLE IL
1000 PM CST THU FEB 11 2016

NOTE: "FAIR" INDICATES FEW OR NO CLOUDS BELOW 12,000 FEET WITH NO
SIGNIFICANT WEATHER AND/OR OBSTRUCTIONS TO VISIBILITY.

* THESE STATIONS ARE NOT UNDER NWS QUALITY CONTROL. THEY ALSO MAY NOT
  REPORT WEATHER SUCH AS PRECIPITATION OR FOG.

ILZ005-006-012>014-019>023-120500-
NORTHEAST ILLINOIS

CITY           SKY/WX    TMP DP  RH WIND       PRES   REMARKS
OHARE          MOCLDY    17   7  64 CALM      30.26F
MIDWAY         MOCLDY    19   4  51 SW5       30.27F WCI  12
AURORA         CLOUDY    19  10  68 SW5       30.27S WCI  12
LANSING*       CLEAR     15   7  70 CALM      30.28S
JOLIET*        CLOUDY    19  13  76 CALM      30.28F
WAUKEGAN       CLOUDY    14   6  70 SW3       30.24F
DUPAGE AIRPORT PTCLDY    13   5  70 CALM      30.25F
WHEELING       CLOUDY    17   5  59 CALM      30.27F
KANKAKEE*      PTCLDY    18  12  76 SW3       30.29S
MORRIS*        PTCLDY    19   9  64 CALM      30.26F
LEWIS AIRPORT* CLOUDY    19  10  68 SW3       30.27F
$$

WIZ051-052-058>065-066-070>072-120500-
SOUTHEAST WISCONSIN

CITY           SKY/WX    TMP DP  RH WIND       PRES   REMARKS
MILWAUKEE      CLOUDY    15   1  53 W7        30.23F WCI   5
KENOSHA*       CLOUDY    15   5  64 SW5       30.24F WCI   8
RACINE*        CLOUDY    17   3  54 W7        30.25F WCI   8
BURLINGTON     CLOUDY    15   6  67 SW5       30.23F WCI   7
WAUKESHA       CLOUDY    14   0  52 SW5       30.22F WCI   6
WEST BEND      CLOUDY    14   0  52 CALM      30.20S
$$

INZ001>003-010>013-019-020-120500-
NORTHWEST INDIANA

CITY           SKY/WX    TMP DP  RH WIND       PRES   REMARKS
GARY*          CLEAR     14   6  70 CALM      30.29S
MICHIGAN CITY* NOT AVBL
RENSSELAER*    NOT AVBL
VALPARAISO     CLEAR     11   6  81 CALM      30.27S
$$

LMZ740>746-120500-
SOUTHERN LAKE MICHIGAN

STATION/POSITION TIME  SKY/WX   TEMP WIND        PRES    VSBY
                                AIR  DIR/SP/G
                 (UTC)          (F)  (DEG/KT/KT) (MB)    (MI)
HARRISON CRIB    0300            21  270/ 11/ 12   N/A
BURNHAM HARBOR   0400            20  260/  4/  9   N/A
CALUMET HARBOR   0300            19              1024.7
BURNS HARBOR     0300            18  200/  7/  8 1025.7S
MICHIGAN CITY    0300            17  150/  8/ 10   N/A
$$

ABBREVIATIONS USED IN REMARKS
   TC - TEMPERATURE IN CELSIUS
  WCI - WIND CHILL INDEX
   HX - HEAT INDEX
  VSB - VISIBILITY
$$



USA.gov is the U.S. government's official web portal to all federal, state and local government web resources and services.